Regional Weather Roundup
Issued by NWS

Home | Current Version | Previous Version | Graphics & Text | Print | Product List | Glossary On
Versions: 1 2 3 4 5 6 7 8 9 10 11 12 13 14 15 16 17 18 19 20 21 22 23 24 25 26 27 28 29 30 31 32 33 34 35 36 37 38 39 40 41 42 43 44 45 46 47 48 49 50
000
ASUS43 KFSD 182002
RWRSD

WEATHER ROUNDUP FOR SOUTH DAKOTA
NATIONAL WEATHER SERVICE SIOUX FALLS SD
300 PM CDT FRI AUG 18 2017

NOTE: "FAIR" INDICATES FEW OR NO CLOUDS BELOW 12,000 FEET WITH NO
SIGNIFICANT WEATHER AND/OR OBSTRUCTIONS TO VISIBILITY.


SDZ001>005-009-010-012>017-182100-
NORTHWEST AND NORTH CENTRAL SOUTH DAKOTA

CITY           SKY/WX    TMP DP  RH WIND       PRES   REMARKS
BUFFALO          N/A     84  41  21 NW13      29.95F
FAITH            N/A     84  44  24 NE10G16   29.99F
MOBRIDGE       SUNNY     80  59  48 N7        29.94S
$$

SDZ012>016-024>037-041>051-057-063-072>074-182100-
SOUTHWEST AND SOUTH CENTRAL SOUTH DAKOTA

CITY           SKY/WX    TMP DP  RH WIND       PRES   REMARKS
RAPID CTY ARPT SUNNY     86  42  21 N18G24    30.02F
PIERRE         SUNNY     83  51  33 N18       29.95S
CUSTER         SUNNY     77  37  23 SW9G18    30.17S
ELLSWORTH AFB  SUNNY     84  42  22 NE14      30.02S
PHILIP         SUNNY     88  46  23 N9        29.97F
PINE RIDGE     SUNNY     87  46  24 NE15      30.03F
SPEARFISH      LGT RAIN  82  39  21 NW7       30.06F
WINNER         FAIR      84  56  38 N13       29.97R
$$

SDZ004>011-016>023-039-040-182100-
NORTHEAST SOUTH DAKOTA

CITY           SKY/WX    TMP DP  RH WIND       PRES   REMARKS
ABERDEEN       MOSUNNY   74  62  66 N9        29.91R
WATERTOWN      PTSUNNY   76  64  66 W15       29.86F
BROOKINGS      MOSUNNY   77  63  61 SW15      29.89F
SISSETON         N/A     66  63  90 N6        29.87F
$$

SDZ017-020-022-023-036>040-048>070-182100-
SOUTHEAST SOUTH DAKOTA

CITY           SKY/WX    TMP DP  RH WIND       PRES   REMARKS
SIOUX FALLS    MOSUNNY   80  66  62 VRB6      29.90S
HURON          SUNNY     79  63  57 NW16      29.90S
CHAMBERLAIN    SUNNY     83  59  43 NW10G18   29.94S
MITCHELL       MOSUNNY   81  66  60 NW5       29.90S
YANKTON        SUNNY     82  66  58 SW8       29.90
$$

ABBREVIATIONS USED IN REMARKS
   TC - TEMPERATURE IN CELSIUS
  WCI - WIND CHILL INDEX
   HX - HEAT INDEX
  VSB - VISIBILITY




USA.gov is the U.S. government's official web portal to all federal, state and local government web resources and services.